Time,TemperatureF,DewpointF,PressureIn,WindDirection,WindDirectionDegrees,WindSpeedMPH,WindSpeedGustMPH,Humidity,HourlyPrecipIn,Conditions,Clouds,dailyrainin,SoftwareType,DateUTC
2013-02-27 00:00:00,33.0,31.7,29.86,ENE,62,2.0,5.0,95,0.00,,,0.00,Wunderground v.1.15,2013-02-27 05:00:00,
2013-02-27 00:10:00,33.0,31.7,29.85,ESE,112,4.0,4.0,95,0.00,,,0.00,Wunderground v.1.15,2013-02-27 05:10:00,
2013-02-27 00:20:00,33.1,31.8,29.85,ESE,109,3.0,9.0,95,0.00,,,0.00,Wunderground v.1.15,2013-02-27 05:20:00,
2013-02-27 00:30:00,33.1,31.8,29.84,ENE,65,5.0,5.0,95,0.00,,,0.00,Wunderground v.1.15,2013-02-27 05:30:00,
2013-02-27 00:40:00,33.2,31.9,29.83,ESE,121,5.0,9.0,95,0.00,,,0.00,Wunderground v.1.15,2013-02-27 05:40:00,
2013-02-27 00:50:00,33.2,31.9,29.82,ENE,69,6.0,6.0,95,0.00,,,0.00,Wunderground v.1.15,2013-02-27 05:50:00,
2013-02-27 01:00:00,33.2,31.9,29.81,East,96,6.0,7.0,95,0.00,,,0.00,Wunderground v.1.15,2013-02-27 06:00:00,
2013-02-27 01:10:00,33.2,31.9,29.80,ESE,119,6.0,8.0,95,0.00,,,0.00,Wunderground v.1.15,2013-02-27 06:10:00,
2013-02-27 01:20:00,33.2,31.9,29.80,East,91,5.0,5.0,95,0.00,,,0.00,Wunderground v.1.15,2013-02-27 06:20:00,
2013-02-27 01:30:00,33.2,31.9,29.80,ESE,117,5.0,5.0,95,0.00,,,0.00,Wunderground v.1.15,2013-02-27 06:30:00,
2013-02-27 01:40:00,33.2,31.9,29.79,East,98,7.0,7.0,95,0.00,,,0.00,Wunderground v.1.15,2013-02-27 06:40:00,
2013-02-27 01:50:00,33.2,31.9,29.78,ESE,109,5.0,5.0,95,0.00,,,0.00,Wunderground v.1.15,2013-02-27 06:50:00,
2013-02-27 02:01:00,33.3,32.0,29.78,SE,128,6.0,10.0,95,0.00,,,0.00,Wunderground v.1.15,2013-02-27 07:01:00,
2013-02-27 02:10:00,33.3,32.0,29.78,SE,124,6.0,6.0,95,0.00,,,0.00,Wunderground v.1.15,2013-02-27 07:10:00,
2013-02-27 02:21:00,33.3,32.0,29.76,SE,125,6.0,6.0,95,0.00,,,0.00,Wunderground v.1.15,2013-02-27 07:21:00,
2013-02-27 02:31:00,33.4,32.1,29.75,SE,144,5.0,9.0,95,0.00,,,0.00,Wunderground v.1.15,2013-02-27 07:31:00,
2013-02-27 02:41:00,33.4,31.9,29.75,ENE,77,5.0,5.0,94,0.00,,,0.00,Wunderground v.1.15,2013-02-27 07:41:00,
2013-02-27 02:49:00,33.5,32.2,29.74,ESE,121,5.0,9.0,95,0.00,,,0.00,Wunderground v.1.15,2013-02-27 07:49:00,
2013-02-27 03:00:00,33.5,32.0,29.73,ESE,115,5.0,5.0,94,0.00,,,0.00,Wunderground v.1.15,2013-02-27 08:00:00,
2013-02-27 03:10:00,33.5,32.0,29.72,ESE,102,6.0,6.0,94,0.00,,,0.00,Wunderground v.1.15,2013-02-27 08:10:00,
2013-02-27 03:20:00,33.5,32.0,29.72,ESE,117,5.0,5.0,94,0.00,,,0.00,Wunderground v.1.15,2013-02-27 08:20:00,
2013-02-27 03:30:00,33.6,32.1,29.72,SE,138,3.0,4.0,94,0.00,,,0.00,Wunderground v.1.15,2013-02-27 08:30:00,
2013-02-27 03:40:00,33.6,32.1,29.71,East,98,5.0,5.0,94,0.00,,,0.00,Wunderground v.1.15,2013-02-27 08:40:00,
2013-02-27 03:50:00,33.6,32.1,29.70,ESE,104,5.0,5.0,94,0.00,,,0.00,Wunderground v.1.15,2013-02-27 08:50:00,
2013-02-27 04:00:00,33.6,32.1,29.70,SE,134,4.0,5.0,94,0.00,,,0.00,Wunderground v.1.15,2013-02-27 09:00:00,
2013-02-27 04:10:00,33.7,32.2,29.70,SSE,151,5.0,5.0,94,0.00,,,0.00,Wunderground v.1.15,2013-02-27 09:10:00,
2013-02-27 04:20:00,33.7,32.2,29.69,ESE,119,5.0,5.0,94,0.00,,,0.00,Wunderground v.1.15,2013-02-27 09:20:00,
2013-02-27 04:30:00,33.7,32.2,29.69,NE,55,5.0,9.0,94,0.00,,,0.00,Wunderground v.1.15,2013-02-27 09:30:00,
2013-02-27 04:40:00,33.7,32.2,29.69,ESE,117,4.0,4.0,94,0.00,,,0.00,Wunderground v.1.15,2013-02-27 09:40:00,
2013-02-27 04:50:00,33.7,32.2,29.68,ESE,105,4.0,7.0,94,0.00,,,0.00,Wunderground v.1.15,2013-02-27 09:50:00,
2013-02-27 05:00:00,33.7,32.2,29.68,ESE,115,6.0,8.0,94,0.00,,,0.00,Wunderground v.1.15,2013-02-27 10:00:00,
2013-02-27 05:10:00,33.7,32.2,29.68,East,90,4.0,7.0,94,0.00,,,0.00,Wunderground v.1.15,2013-02-27 10:10:00,
2013-02-27 05:20:00,33.7,32.2,29.67,NE,40,4.0,4.0,94,0.00,,,0.00,Wunderground v.1.15,2013-02-27 10:20:00,
2013-02-27 05:30:00,33.6,32.1,29.67,ENE,73,4.0,4.0,94,0.00,,,0.00,Wunderground v.1.15,2013-02-27 10:30:00,
2013-02-27 05:40:00,33.6,32.1,29.67,ESE,103,4.0,4.0,94,0.00,,,0.00,Wunderground v.1.15,2013-02-27 10:40:00,
2013-02-27 05:50:00,33.6,32.1,29.67,ESE,108,3.0,4.0,94,0.00,,,0.00,Wunderground v.1.15,2013-02-27 10:50:00,
2013-02-27 06:10:00,33.5,32.0,29.66,SE,146,3.0,3.0,94,0.00,,,0.00,Wunderground v.1.15,2013-02-27 11:10:00,
2013-02-27 06:20:00,33.6,31.8,29.66,East,96,4.0,4.0,93,0.00,,,0.00,Wunderground v.1.15,2013-02-27 11:20:00,
2013-02-27 06:31:00,33.6,31.8,29.65,East,83,3.0,3.0,93,0.00,,,0.00,Wunderground v.1.15,2013-02-27 11:31:00,
2013-02-27 06:41:00,33.6,31.8,29.65,ENE,63,3.0,3.0,93,0.00,,,0.00,Wunderground v.1.15,2013-02-27 11:41:00,
2013-02-27 06:49:00,33.5,31.7,29.65,East,82,2.0,2.0,93,0.00,,,0.00,Wunderground v.1.15,2013-02-27 11:49:00,
2013-02-27 07:00:00,33.5,31.7,29.65,ENE,69,3.0,8.0,93,0.00,,,0.00,Wunderground v.1.15,2013-02-27 12:00:00,
2013-02-27 07:10:00,33.5,31.4,29.64,ENE,74,3.0,9.0,92,0.00,,,0.00,Wunderground v.1.15,2013-02-27 12:10:00,
2013-02-27 07:20:00,33.5,31.7,29.65,ESE,116,3.0,3.0,93,0.00,,,0.00,Wunderground v.1.15,2013-02-27 12:20:00,
2013-02-27 07:31:00,33.4,31.6,29.64,ENE,65,3.0,3.0,93,0.00,,,0.00,Wunderground v.1.15,2013-02-27 12:31:00,
2013-02-27 07:41:00,33.4,31.6,29.64,ENE,73,4.0,9.0,93,0.00,,,0.00,Wunderground v.1.15,2013-02-27 12:41:00,
2013-02-27 07:50:00,33.3,31.5,29.64,East,96,3.0,3.0,93,0.00,,,0.00,Wunderground v.1.15,2013-02-27 12:50:00,
2013-02-27 07:59:00,33.3,31.8,29.64,NNE,28,3.0,9.0,94,0.00,,,0.00,Wunderground v.1.15,2013-02-27 12:59:00,
2013-02-27 08:09:00,33.4,31.9,29.64,ENE,77,4.0,4.0,94,0.00,,,0.00,Wunderground v.1.15,2013-02-27 13:09:00,
2013-02-27 08:20:00,33.4,31.9,29.64,NE,44,5.0,9.0,94,0.00,,,0.00,Wunderground v.1.15,2013-02-27 13:20:00,
2013-02-27 08:29:00,33.5,31.7,29.64,ENE,57,4.0,4.0,93,0.00,,,0.00,Wunderground v.1.15,2013-02-27 13:29:00,
2013-02-27 08:39:00,33.5,32.0,29.64,ENE,61,4.0,9.0,94,0.00,,,0.00,Wunderground v.1.15,2013-02-27 13:39:00,
2013-02-27 08:50:00,33.7,31.9,29.64,ENE,61,3.0,9.0,93,0.00,,,0.00,Wunderground v.1.15,2013-02-27 13:50:00,
2013-02-27 08:59:00,33.8,32.0,29.64,NE,37,4.0,9.0,93,0.00,,,0.00,Wunderground v.1.15,2013-02-27 13:59:00,
2013-02-27 09:10:00,33.7,31.9,29.63,NE,46,4.0,4.0,93,0.00,,,0.00,Wunderground v.1.15,2013-02-27 14:10:00,
2013-02-27 09:20:00,33.6,32.1,29.63,NE,44,4.0,4.0,94,0.00,,,0.00,Wunderground v.1.15,2013-02-27 14:20:00,
2013-02-27 09:30:00,33.4,31.9,29.63,NE,40,3.0,3.0,94,0.00,,,0.00,Wunderground v.1.15,2013-02-27 14:30:00,
2013-02-27 09:40:00,33.3,31.8,29.63,NNE,28,3.0,3.0,94,0.00,,,0.00,Wunderground v.1.15,2013-02-27 14:40:00,
2013-02-27 09:50:00,33.3,32.0,29.63,NNE,32,3.0,9.0,95,0.00,,,0.00,Wunderground v.1.15,2013-02-27 14:50:00,
2013-02-27 10:00:00,33.4,32.1,29.63,NE,38,3.0,9.0,95,0.00,,,0.00,Wunderground v.1.15,2013-02-27 15:00:00,
2013-02-27 10:10:00,33.4,32.1,29.63,North,10,3.0,3.0,95,0.00,,,0.00,Wunderground v.1.15,2013-02-27 15:10:00,
2013-02-27 10:20:00,33.4,32.1,29.63,North,10,2.0,9.0,95,0.00,,,0.00,Wunderground v.1.15,2013-02-27 15:20:00,
2013-02-27 10:30:00,33.6,32.3,29.63,North,10,3.0,9.0,95,0.00,,,0.00,Wunderground v.1.15,2013-02-27 15:30:00,
2013-02-27 10:40:00,33.5,32.2,29.63,North,5,3.0,9.0,95,0.00,,,0.00,Wunderground v.1.15,2013-02-27 15:40:00,
2013-02-27 10:50:00,33.4,32.1,29.63,NNE,13,3.0,3.0,95,0.00,,,0.00,Wunderground v.1.15,2013-02-27 15:50:00,
2013-02-27 11:00:00,33.4,32.1,29.63,North,10,2.0,9.0,95,0.00,,,0.00,Wunderground v.1.15,2013-02-27 16:00:00,
2013-02-27 11:10:00,33.4,32.1,29.63,NNE,29,2.0,9.0,95,0.00,,,0.00,Wunderground v.1.15,2013-02-27 16:10:00,
2013-02-27 11:20:00,33.4,32.4,29.63,NNE,29,3.0,3.0,96,0.00,,,0.00,Wunderground v.1.15,2013-02-27 16:20:00,
2013-02-27 11:30:00,33.5,32.5,29.63,NNE,15,2.0,9.0,96,0.00,,,0.00,Wunderground v.1.15,2013-02-27 16:30:00,
2013-02-27 11:40:00,33.5,32.5,29.64,North,11,2.0,9.0,96,0.00,,,0.00,Wunderground v.1.15,2013-02-27 16:40:00,
2013-02-27 11:50:00,33.5,32.5,29.63,NNE,30,2.0,9.0,96,0.00,,,0.00,Wunderground v.1.15,2013-02-27 16:50:00,
2013-02-27 12:00:00,33.6,32.6,29.62,NE,42,4.0,9.0,96,0.00,,,0.00,Wunderground v.1.15,2013-02-27 17:00:00,
2013-02-27 12:10:00,33.8,32.8,29.62,NE,44,5.0,9.0,96,0.00,,,0.00,Wunderground v.1.15,2013-02-27 17:10:00,
2013-02-27 12:20:00,34.3,33.3,29.61,NE,55,5.0,9.0,96,0.00,,,0.00,Wunderground v.1.15,2013-02-27 17:20:00,
2013-02-27 12:30:00,34.8,33.8,29.61,NNE,31,6.0,6.0,96,0.00,,,0.00,Wunderground v.1.15,2013-02-27 17:30:00,
2013-02-27 12:40:00,34.8,33.5,29.60,NE,46,7.0,7.0,95,0.00,,,0.00,Wunderground v.1.15,2013-02-27 17:40:00,
2013-02-27 12:50:00,35.1,33.8,29.60,NE,40,6.0,6.0,95,0.00,,,0.00,Wunderground v.1.15,2013-02-27 17:50:00,
2013-02-27 13:00:00,35.3,34.0,29.59,NE,40,4.0,4.0,95,0.00,,,0.00,Wunderground v.1.15,2013-02-27 18:00:00,
2013-02-27 13:10:00,35.7,34.4,29.59,NE,37,5.0,6.0,95,0.00,,,0.00,Wunderground v.1.15,2013-02-27 18:10:00,
2013-02-27 13:20:00,36.0,34.4,29.58,NE,34,5.0,5.0,94,0.00,,,0.00,Wunderground v.1.15,2013-02-27 18:20:00,
2013-02-27 13:30:00,36.2,34.6,29.58,NE,49,5.0,5.0,94,0.00,,,0.00,Wunderground v.1.15,2013-02-27 18:30:00,
2013-02-27 13:40:00,36.4,34.8,29.58,NE,37,4.0,6.0,94,0.00,,,0.00,Wunderground v.1.15,2013-02-27 18:40:00,
2013-02-27 13:50:00,36.8,35.2,29.57,NE,44,3.0,6.0,94,0.00,,,0.00,Wunderground v.1.15,2013-02-27 18:50:00,
2013-02-27 14:00:00,36.8,35.2,29.57,ENE,63,3.0,6.0,94,0.00,,,0.00,Wunderground v.1.15,2013-02-27 19:00:00,
2013-02-27 14:11:00,36.7,35.1,29.57,NNE,31,4.0,4.0,94,0.00,,,0.00,Wunderground v.1.15,2013-02-27 19:11:00,
2013-02-27 14:21:00,36.6,35.0,29.57,NE,47,4.0,7.0,94,0.00,,,0.00,Wunderground v.1.15,2013-02-27 19:21:00,
2013-02-27 14:31:00,36.6,35.0,29.57,NNE,33,3.0,3.0,94,0.00,,,0.00,Wunderground v.1.15,2013-02-27 19:31:00,
2013-02-27 14:41:00,36.4,34.8,29.57,NE,43,2.0,2.0,94,0.00,,,0.00,Wunderground v.1.15,2013-02-27 19:41:00,
2013-02-27 14:50:00,36.4,34.8,29.57,NE,37,2.0,2.0,94,0.00,,,0.00,Wunderground v.1.15,2013-02-27 19:50:00,
2013-02-27 15:00:00,36.4,34.8,29.57,NE,37,1.0,6.0,94,0.00,,,0.00,Wunderground v.1.15,2013-02-27 20:00:00,
2013-02-27 15:09:00,36.2,34.6,29.57,ENE,67,1.0,6.0,94,0.00,,,0.00,Wunderground v.1.15,2013-02-27 20:09:00,
2013-02-27 15:20:00,36.2,34.6,29.57,East,99,1.0,1.0,94,0.00,,,0.00,Wunderground v.1.15,2013-02-27 20:20:00,
2013-02-27 15:30:00,36.2,34.6,29.57,East,99,1.0,6.0,94,0.00,,,0.00,Wunderground v.1.15,2013-02-27 20:30:00,
2013-02-27 15:39:00,36.4,34.8,29.57,East,99,0.0,6.0,94,0.00,,,0.00,Wunderground v.1.15,2013-02-27 20:39:00,
2013-02-27 15:50:00,36.4,34.8,29.57,East,99,0.0,6.0,94,0.00,,,0.00,Wunderground v.1.15,2013-02-27 20:50:00,
2013-02-27 16:00:00,36.2,34.6,29.58,East,99,0.0,6.0,94,0.00,,,0.00,Wunderground v.1.15,2013-02-27 21:00:00,
2013-02-27 16:10:00,36.1,34.5,29.58,East,99,1.0,6.0,94,0.00,,,0.00,Wunderground v.1.15,2013-02-27 21:10:00,
2013-02-27 16:20:00,35.7,34.1,29.58,East,99,1.0,6.0,94,0.00,,,0.00,Wunderground v.1.15,2013-02-27 21:20:00,
2013-02-27 16:30:00,35.5,34.2,29.58,ESE,103,1.0,6.0,95,0.00,,,0.00,Wunderground v.1.15,2013-02-27 21:30:00,
2013-02-27 16:40:00,35.2,33.9,29.58,West,259,1.0,6.0,95,0.00,,,0.00,Wunderground v.1.15,2013-02-27 21:40:00,
2013-02-27 16:50:00,35.0,33.7,29.58,West,267,1.0,6.0,95,0.00,,,0.00,Wunderground v.1.15,2013-02-27 21:50:00,
2013-02-27 17:00:00,34.7,33.4,29.58,West,267,1.0,6.0,95,0.00,,,0.00,Wunderground v.1.15,2013-02-27 22:00:00,
2013-02-27 17:10:00,34.6,33.3,29.58,West,264,1.0,1.0,95,0.00,,,0.00,Wunderground v.1.15,2013-02-27 22:10:00,
2013-02-27 17:20:00,34.4,33.1,29.58,West,265,1.0,6.0,95,0.00,,,0.00,Wunderground v.1.15,2013-02-27 22:20:00,
2013-02-27 17:30:00,34.2,33.2,29.58,WNW,301,1.0,6.0,96,0.00,,,0.00,Wunderground v.1.15,2013-02-27 22:30:00,
2013-02-27 17:40:00,34.0,33.0,29.58,WNW,302,1.0,1.0,96,0.00,,,0.00,Wunderground v.1.15,2013-02-27 22:40:00,
2013-02-27 17:50:00,33.7,32.7,29.58,WNW,300,0.0,6.0,96,0.00,,,0.00,Wunderground v.1.15,2013-02-27 22:50:00,
2013-02-27 18:00:00,33.6,32.6,29.58,WNW,296,1.0,6.0,96,0.00,,,0.00,Wunderground v.1.15,2013-02-27 23:00:00,
2013-02-27 18:10:00,33.6,32.6,29.58,WNW,293,1.0,6.0,96,0.00,,,0.00,Wunderground v.1.15,2013-02-27 23:10:00,
2013-02-27 18:20:00,33.6,32.6,29.58,WNW,283,1.0,6.0,96,0.00,,,0.00,Wunderground v.1.15,2013-02-27 23:20:00,
2013-02-27 18:30:00,33.6,32.6,29.58,WSW,252,1.0,6.0,96,0.00,,,0.00,Wunderground v.1.15,2013-02-27 23:30:00,
2013-02-27 18:40:00,33.6,32.6,29.58,WSW,241,1.0,6.0,96,0.00,,,0.00,Wunderground v.1.15,2013-02-27 23:40:00,
2013-02-27 18:50:00,33.5,32.5,29.58,SW,228,2.0,6.0,96,0.00,,,0.00,Wunderground v.1.15,2013-02-27 23:50:00,
2013-02-27 19:00:00,33.6,32.6,29.58,SW,221,1.0,6.0,96,0.00,,,0.00,Wunderground v.1.15,2013-02-28 00:00:00,
2013-02-27 19:10:00,33.5,32.5,29.58,WSW,245,2.0,2.0,96,0.00,,,0.00,Wunderground v.1.15,2013-02-28 00:10:00,
2013-02-27 19:20:00,33.5,32.5,29.58,SW,236,1.0,6.0,96,0.00,,,0.00,Wunderground v.1.15,2013-02-28 00:20:00,
2013-02-27 19:30:00,33.5,32.5,29.58,SW,219,2.0,6.0,96,0.00,,,0.00,Wunderground v.1.15,2013-02-28 00:30:00,
2013-02-27 19:40:00,33.4,32.4,29.58,SW,221,1.0,6.0,96,0.00,,,0.00,Wunderground v.1.15,2013-02-28 00:40:00,
2013-02-27 19:49:00,33.4,32.4,29.58,SW,220,1.0,6.0,96,0.00,,,0.00,Wunderground v.1.15,2013-02-28 00:49:00,
2013-02-27 20:00:00,33.4,32.4,29.58,WSW,238,1.0,6.0,96,0.00,,,0.00,Wunderground v.1.15,2013-02-28 01:00:00,
2013-02-27 20:09:00,33.5,32.5,29.58,WSW,242,2.0,6.0,96,0.00,,,0.00,Wunderground v.1.15,2013-02-28 01:09:00,
2013-02-27 20:20:00,33.7,32.9,29.57,SW,222,2.0,6.0,97,0.00,,,0.00,Wunderground v.1.15,2013-02-28 01:20:00,
2013-02-27 20:30:00,33.7,32.9,29.57,SW,221,2.0,6.0,97,0.00,,,0.00,Wunderground v.1.15,2013-02-28 01:30:00,
2013-02-27 20:40:00,33.9,33.1,29.57,WSW,242,3.0,3.0,97,0.00,,,0.00,Wunderground v.1.15,2013-02-28 01:40:00,
2013-02-27 20:50:00,34.1,33.1,29.58,WSW,254,3.0,6.0,96,0.00,,,0.00,Wunderground v.1.15,2013-02-28 01:50:00,
2013-02-27 21:00:00,34.1,33.1,29.58,SW,232,4.0,6.0,96,0.00,,,0.00,Wunderground v.1.15,2013-02-28 02:00:00,
2013-02-27 21:10:00,33.9,32.9,29.58,WSW,246,4.0,4.0,96,0.00,,,0.00,Wunderground v.1.15,2013-02-28 02:10:00,
2013-02-27 21:20:00,33.9,32.9,29.58,SW,221,3.0,6.0,96,0.00,,,0.00,Wunderground v.1.15,2013-02-28 02:20:00,
2013-02-27 21:30:00,33.9,32.9,29.58,SW,221,4.0,6.0,96,0.00,,,0.00,Wunderground v.1.15,2013-02-28 02:30:00,
2013-02-27 21:40:00,34.0,33.0,29.58,SW,233,4.0,4.0,96,0.00,,,0.00,Wunderground v.1.15,2013-02-28 02:40:00,
2013-02-27 21:50:00,33.9,32.9,29.58,WSW,248,3.0,6.0,96,0.00,,,0.00,Wunderground v.1.15,2013-02-28 02:50:00,
2013-02-27 22:00:00,33.9,32.9,29.58,SW,234,4.0,6.0,96,0.00,,,0.00,Wunderground v.1.15,2013-02-28 03:00:00,
2013-02-27 22:10:00,33.9,32.9,29.58,WSW,254,4.0,6.0,96,0.00,,,0.00,Wunderground v.1.15,2013-02-28 03:10:00,
2013-02-27 22:20:00,33.9,32.9,29.58,WSW,242,4.0,6.0,96,0.00,,,0.00,Wunderground v.1.15,2013-02-28 03:20:00,
2013-02-27 22:30:00,33.8,32.8,29.58,West,260,3.0,6.0,96,0.00,,,0.00,Wunderground v.1.15,2013-02-28 03:30:00,
2013-02-27 22:40:00,33.8,32.8,29.58,WSW,251,4.0,4.0,96,0.00,,,0.00,Wunderground v.1.15,2013-02-28 03:40:00,
2013-02-27 22:50:00,33.7,32.7,29.58,West,261,3.0,3.0,96,0.00,,,0.00,Wunderground v.1.15,2013-02-28 03:50:00,
2013-02-27 23:00:00,33.7,32.7,29.58,WSW,243,3.0,3.0,96,0.00,,,0.00,Wunderground v.1.15,2013-02-28 04:00:00,
2013-02-27 23:10:00,33.6,32.6,29.58,WSW,240,3.0,6.0,96,0.00,,,0.00,Wunderground v.1.15,2013-02-28 04:10:00,
2013-02-27 23:20:00,33.7,32.7,29.58,WSW,250,3.0,6.0,96,0.00,,,0.00,Wunderground v.1.15,2013-02-28 04:20:00,
2013-02-27 23:30:00,33.7,32.7,29.57,WSW,242,3.0,6.0,96,0.00,,,0.00,Wunderground v.1.15,2013-02-28 04:30:00,
2013-02-27 23:40:00,33.9,32.9,29.57,WSW,246,4.0,6.0,96,0.00,,,0.00,Wunderground v.1.15,2013-02-28 04:40:00,
2013-02-27 23:50:00,34.0,33.0,29.57,WSW,242,5.0,6.0,96,0.00,,,0.00,Wunderground v.1.15,2013-02-28 04:50:00,